RADUGA 32 1 23448U 94087A 10239.00343948 -.00000058 00000-0 10000-3 0 3010 2 23448 11.1613 47.4061 0005002 116.7612 243.4018 1.00264883 75050 RADUGA-1 4 1 25642U 99010A 10242.13314581 .00000149 00000-0 00000+0 0 3934 2 25642 9.9135 62.7689 0002302 120.5490 239.6032 1.00296270 42125 RADUGA-1 5 1 26477U 00049A 10243.72530376 -.00000220 00000-0 10000-3 0 9171 2 26477 7.5429 61.6188 0001248 21.2803 248.0095 1.00213373 36643 RADUGA-1 7 1 28194U 04010A 10245.17794669 -.00000349 00000-0 10000-3 0 2219 2 28194 4.9011 77.0425 0001149 137.3075 318.9543 1.00264070 23577 RADUGA-1M 1 1 32373U 07058A 10242.64343888 -.00000039 00000-0 10000-3 0 7918 2 32373 0.0115 192.0934 0002742 301.5290 146.7435 1.00273070 10876